Pontiac, IL

3:08 PM CDT on May 23, 2017 (GMT -0500)
Pontiac Municipal

Weather History for KPNT - January, 2013

Change the Weather History Date:

Sunday, January 27, 2013

  Actual Average Record
Temperature  
Mean Temperature 30 °F -  
Max Temperature 42 °F 28 °F 63 °F (1944)
Min Temperature 21 °F 13 °F -16 °F (2003)
Degree Days  
Heating Degree Days 35    
Moisture  
Dew Point 27 °F    
Average Humidity 82    
Maximum Humidity 100    
Minimum Humidity 64    
Precipitation  
Precipitation 0.17 in - - ()
Sea Level Pressure  
Sea Level Pressure 30.16 in    
Wind  
Wind Speed 11 mph (SE)    
Max Wind Speed 18 mph    
Max Gust Speed 23 mph    
Visibility 7 miles    
Events Fog , Rain , Snow    
Averages and records for this station are not official NWS values.
T = Trace of Precipitation, MM = Missing Value Source: NWS Daily Summary

Daily Weather History Graph

Daily Weather History Graph

Search for Another Location

Airport or City:

Trip Planner

Search our weather history database for the weather conditions in past years. The results will help you decide how hot, cold, wet, or windy it might be!

Date:

Astronomy

Jan. 27, 2013 Rise Set
Actual Time 7:09 AM CST 5:05 PM CST
Civil Twilight 6:39 AM CST 5:35 PM CST
Nautical Twilight 6:06 AM CST 6:08 PM CST
Astronomical Twilight 5:34 AM CST 6:40 PM CST
Moon 6:00 PM CST (1/27) 7:01 AM CST (1/27)
Length of Visible Light 10h 55m
Length of Day
9h 56m
Full, 100% of the Moon is Illuminated
Jan 27
Full
Feb 3
Last Quarter
Feb 10
New
Feb 17
First Quarter
Feb 25
Full

Hourly Weather History & Observations

Time (CST) Temp. Windchill Dew Point Humidity Pressure Visibility Wind Dir Wind Speed Gust Speed Precip Events Conditions
12:15 AM 26.6 °F 19.1 °F 15.8 °F 64% 30.37 in 10.0 mi SE 6.9 mph - N/A   Mostly Cloudy
12:35 AM 26.6 °F 20.0 °F 17.6 °F 69% 30.36 in 10.0 mi SE 5.8 mph - N/A   Scattered Clouds
12:55 AM 26.6 °F 18.2 °F 17.6 °F 69% 30.35 in 10.0 mi SE 8.1 mph - N/A   Scattered Clouds
1:15 AM 26.6 °F 20.0 °F 17.6 °F 69% 30.35 in 10.0 mi SSE 5.8 mph - N/A   Scattered Clouds
1:35 AM 24.8 °F 16.1 °F 17.6 °F 74% 30.36 in 10.0 mi SSE 8.1 mph - N/A   Clear
1:55 AM 24.8 °F 16.1 °F 17.6 °F 74% 30.36 in 10.0 mi SSE 8.1 mph - N/A   Clear
2:15 AM 24.8 °F 16.9 °F 17.6 °F 74% 30.35 in 10.0 mi SE 6.9 mph - N/A   Clear
2:35 AM 24.8 °F 16.9 °F 17.6 °F 74% 30.35 in 10.0 mi SE 6.9 mph - N/A   Clear
2:55 AM 21.2 °F 13.6 °F 17.6 °F 86% 30.34 in 10.0 mi ESE 5.8 mph - N/A   Clear
3:15 AM 24.8 °F 15.3 °F 17.6 °F 74% 30.33 in 10.0 mi ESE 9.2 mph - N/A   Clear
3:35 AM 24.8 °F 14.6 °F 17.6 °F 74% 30.32 in 10.0 mi ESE 10.4 mph - N/A   Clear
3:55 AM 24.8 °F 15.3 °F 17.6 °F 74% 30.32 in 10.0 mi ESE 9.2 mph - N/A   Clear
4:15 AM 24.8 °F 14.6 °F 17.6 °F 74% 30.32 in 10.0 mi SE 10.4 mph - N/A   Clear
4:35 AM 24.8 °F 14.0 °F 17.6 °F 74% 30.31 in 10.0 mi SE 11.5 mph - N/A   Clear
4:55 AM 24.8 °F 13.4 °F 17.6 °F 74% 30.29 in 10.0 mi ESE 12.7 mph - N/A   Clear
5:15 AM 24.8 °F 14.0 °F 19.4 °F 80% 30.29 in 10.0 mi SE 11.5 mph - N/A   Clear
5:35 AM 24.8 °F 14.0 °F 19.4 °F 80% 30.29 in 10.0 mi SE 11.5 mph - N/A   Clear
5:55 AM 24.8 °F 14.0 °F 19.4 °F 80% 30.29 in 10.0 mi SE 11.5 mph - N/A   Clear
6:15 AM 26.6 °F 15.7 °F 19.4 °F 74% 30.29 in 10.0 mi SE 12.7 mph - N/A   Clear
6:35 AM 26.6 °F 15.7 °F 19.4 °F 74% 30.29 in 10.0 mi SE 12.7 mph - N/A   Clear
6:55 AM 26.6 °F 16.2 °F 19.4 °F 74% 30.30 in 10.0 mi SSE 11.5 mph - N/A   Clear
7:15 AM 26.6 °F 14.7 °F 19.4 °F 74% 30.30 in 10.0 mi SSE 15.0 mph - N/A   Clear
7:35 AM 26.6 °F 15.2 °F 19.4 °F 74% 30.29 in 10.0 mi SE 13.8 mph - N/A   Clear
7:55 AM 28.4 °F 16.2 °F 19.4 °F 69% 30.28 in 10.0 mi SE 17.3 mph - N/A   Scattered Clouds
8:15 AM 28.4 °F 17.5 °F 19.4 °F 69% 30.29 in 10.0 mi SE 13.8 mph - N/A   Scattered Clouds
8:35 AM 28.4 °F 17.0 °F 19.4 °F 69% 30.29 in 10.0 mi SSE 15.0 mph - N/A   Clear
8:55 AM 30.2 °F 19.8 °F 19.4 °F 64% 30.30 in 10.0 mi SSE 13.8 mph - N/A   Clear
9:15 AM 30.2 °F 18.9 °F 19.4 °F 64% 30.29 in 10.0 mi SE 16.1 mph - N/A   Scattered Clouds
9:35 AM 30.2 °F 21.9 °F 21.2 °F 69% 30.30 in 7.0 mi SSE 9.2 mph - N/A   Scattered Clouds
9:55 AM 32.0 °F 22.1 °F 21.2 °F 64% 30.29 in 10.0 mi SSE 13.8 mph - N/A   Clear
10:15 AM 32.0 °F 22.5 °F 21.2 °F 64% 30.28 in 10.0 mi SSE 12.7 mph - N/A   Scattered Clouds
10:35 AM 33.8 °F 23.5 °F 23.0 °F 65% 30.27 in 10.0 mi SSE 16.1 mph 21.9 mph N/A   Scattered Clouds
10:55 AM 33.8 °F 23.2 °F 23.0 °F 65% 30.25 in 10.0 mi SE 17.3 mph - N/A   Clear
11:15 AM 33.8 °F 23.2 °F 23.0 °F 65% 30.22 in 10.0 mi SE 17.3 mph 20.7 mph N/A   Mostly Cloudy
11:35 AM 33.8 °F 23.2 °F 23.0 °F 65% 30.21 in 10.0 mi SE 17.3 mph 23.0 mph N/A   Overcast
11:55 AM 33.8 °F 23.2 °F 24.8 °F 70% 30.18 in 7.0 mi SE 17.3 mph - N/A   Overcast
12:15 PM 33.8 °F 23.2 °F 24.8 °F 70% 30.17 in 10.0 mi SE 17.3 mph - N/A   Overcast
12:35 PM 33.8 °F 23.5 °F 26.6 °F 75% 30.15 in 5.0 mi SE 16.1 mph - N/A   Overcast
12:55 PM 33.8 °F 22.8 °F 28.4 °F 81% 30.13 in 5.0 mi SE 18.4 mph 21.9 mph N/A   Overcast
1:15 PM 33.8 °F 23.9 °F 28.4 °F 81% 30.13 in 7.0 mi SE 15.0 mph - 0.01 in   Overcast
1:35 PM 33.8 °F 23.9 °F 30.2 °F 87% 30.12 in 3.0 mi SE 15.0 mph - 0.02 in   Overcast
1:55 PM 33.8 °F 24.3 °F 30.2 °F 87% 30.11 in 7.0 mi SE 13.8 mph - 0.02 in   Overcast
2:15 PM 33.8 °F 24.3 °F 30.2 °F 87% 30.09 in 4.0 mi SE 13.8 mph - N/A   Overcast
2:35 PM 33.8 °F 24.8 °F 30.2 °F 87% 30.09 in 3.0 mi SE 12.7 mph - 0.01 in   Overcast
2:55 PM 33.8 °F 25.3 °F 30.2 °F 87% 30.09 in 5.0 mi SE 11.5 mph - 0.01 in   Overcast
3:15 PM 33.8 °F 26.4 °F 30.2 °F 87% 30.09 in 1.5 mi SE 9.2 mph - 0.05 in Snow Snow
3:35 PM 33.8 °F 26.4 °F 32.0 °F 93% 30.08 in 2.5 mi SE 9.2 mph - 0.09 in   Overcast
3:55 PM 33.8 °F 24.8 °F 32.0 °F 93% 30.06 in 3.0 mi SE 12.7 mph - 0.09 in   Mostly Cloudy
4:15 PM 33.8 °F 24.8 °F 33.8 °F 100% 30.05 in 3.0 mi SE 12.7 mph - N/A   Mostly Cloudy
4:35 PM 33.8 °F 25.3 °F 33.8 °F 100% 30.05 in 4.0 mi SE 11.5 mph - N/A   Mostly Cloudy
4:55 PM 33.8 °F 25.3 °F 33.8 °F 100% 30.03 in 4.0 mi SE 11.5 mph - N/A   Mostly Cloudy
5:15 PM 35.6 °F 27.5 °F 33.8 °F 93% 30.01 in 4.0 mi SSE 11.5 mph - 0.01 in   Mostly Cloudy
5:35 PM 35.6 °F 27.1 °F 33.8 °F 93% 30.00 in 5.0 mi SSE 12.7 mph - 0.01 in   Scattered Clouds
5:55 PM 35.6 °F 27.1 °F 33.8 °F 93% 30.00 in 7.0 mi SSE 12.7 mph - 0.02 in   Mostly Cloudy
6:15 PM 35.6 °F 27.5 °F 33.8 °F 93% 29.99 in 5.0 mi SE 11.5 mph - N/A   Mostly Cloudy
6:35 PM 35.6 °F 27.1 °F 33.8 °F 93% 29.98 in 5.0 mi SSE 12.7 mph - 0.01 in Snow Light Snow
6:55 PM 35.6 °F 27.1 °F 33.8 °F 93% 29.98 in 4.0 mi SSE 12.7 mph - 0.01 in   Overcast
7:15 PM 35.6 °F 25.5 °F 33.8 °F 93% 29.96 in 3.0 mi SSE 17.3 mph - 0.01 in   Overcast
7:35 PM 35.6 °F 27.1 °F 35.6 °F 100% 29.97 in 3.0 mi SSE 12.7 mph - 0.01 in   Overcast
7:55 PM 37.4 °F 29.8 °F 35.6 °F 93% 29.97 in 3.0 mi SSE 11.5 mph 16.1 mph 0.01 in Rain Light Rain
8:15 PM 37.4 °F 29.3 °F 37.4 °F 100% 29.94 in 4.0 mi SE 12.7 mph - 0.01 in Rain Light Rain
8:35 PM 37.4 °F 28.9 °F 37.4 °F 100% 29.93 in 3.0 mi SSE 13.8 mph - 0.01 in   Overcast
8:55 PM 37.4 °F 28.9 °F 37.4 °F 100% 29.95 in 3.0 mi South 13.8 mph - 0.01 in   Overcast
9:15 PM 39.2 °F 31.6 °F 37.4 °F 93% 29.97 in 2.5 mi South 12.7 mph - N/A   Overcast
9:35 PM 39.2 °F 33.0 °F 37.4 °F 93% 29.97 in 2.0 mi South 9.2 mph - N/A   Overcast
9:55 PM 39.2 °F 31.2 °F 39.2 °F 100% 29.95 in 1.2 mi South 13.8 mph - N/A   Overcast
10:15 PM 39.2 °F 32.5 °F 39.2 °F 100% 29.96 in 0.8 mi South 10.4 mph - N/A Rain Rain
10:35 PM 39.2 °F 32.5 °F 39.2 °F 100% 29.96 in 0.5 mi South 10.4 mph - N/A Fog Fog
10:55 PM 39.2 °F 32.0 °F 39.2 °F 100% 29.95 in 0.8 mi South 11.5 mph - N/A   Overcast
11:15 PM 39.2 °F 31.6 °F 39.2 °F 100% 29.94 in 0.5 mi South 12.7 mph - N/A Fog Fog
11:35 PM 39.2 °F 31.6 °F 39.2 °F 100% 29.93 in 0.5 mi South 12.7 mph - N/A Fog Fog
11:55 PM 42.8 °F 36.2 °F 41.0 °F 93% 29.93 in 1.2 mi South 12.7 mph 18.4 mph N/A   Overcast